Notices

What's New in latest Release from April 7th, 2021:

- Updated Glossary, including Speed of Maximum Gust, and Total Hourly Precipitation

- Updated national and regional climate services offices contacts and prices information

- Addition of station inventory lists for 1981-2010, 1971-2000, and 1961-1990 Normals.

If you haven't already, please take our survey and provide feedback about our website: https://eccc.sondage-survey.ca/f/LanguageSelection.aspx?s=442ca660-fcf1-47c0-95a9-59707d6fd709

Hourly Data Report for October 23, 2017

VICTORIA UNIVERSITY CS
BRITISH COLUMBIA

48°27'25.200" N
123°18'16.600" W
60.10 m
1018598
71783
WYJ

Download Data

Hourly Data (October 2017)
Hourly Data Report for October 23, 2017
TIME
LST
Temp Definition
°C
Dew Point Definition
°C
Rel Hum Definition
%
Precip. Amount Definition
mm

Wind Dir Definition
10's deg

Wind Spd Definition
km/h
Visibility Definition
km
Stn Press Definition
kPa
Hmdx Definition


Wind Chill Definition


Weather Definition


00:00 8.8 7.4 91 0.0 18 3   102.47     LegendNANA
01:00 8.3 7.4 94 0.0 24 2   102.59     LegendNANA
02:00 8.1 7.4 95 0.0   0   102.61     LegendNANA
03:00 8.3 7.8 96 0.0   0   102.63     LegendNANA
04:00 9.0 8.5 97 0.0 0 1   102.69     LegendNANA
05:00 9.3 8.8 97 0.0 8 2   102.72     LegendNANA
06:00 9.4 8.7 96 0.0 9 3   102.78     LegendNANA
07:00 9.8 8.9 94 0.0 9 2   102.79     LegendNANA
08:00 10.3 8.9 91 0.0 9 3   102.87     LegendNANA
09:00 10.8 9.1 89 0.0 8 4   102.92     LegendNANA
10:00 11.4 9.2 87 0.0 7 4   102.97     LegendNANA
11:00 12.7 9.5 81 0.0 9 4   103.01     LegendNANA
12:00 12.4 8.7 78 0.0 1 8   103.01     LegendNANA
13:00 13.5 9.3 76 0.0 3 6   102.99     LegendNANA
14:00 13.2 8.6 74 0.0 35 8   102.95     LegendNANA
15:00 12.5 8.8 78 0.0 1 7   102.96     LegendNANA
16:00 12.2 8.6 79 0.0 36 6   102.98     LegendNANA
17:00 12.0 8.5 79 0.0 36 8   102.99     LegendNANA
18:00 11.6 8.2 80 0.0 35 7   103.00     LegendNANA
19:00 11.9 8.4 79 0.0 35 8   103.01     LegendNANA
20:00 11.7 8.3 80 0.0 33 8   102.98     LegendNANA
21:00 11.9 8.2 78 0.0 35 7   102.97     LegendNANA
22:00 11.8 8.1 78 0.0 35 8   103.02     LegendNANA
23:00 11.5 8.5 82 0.0 34 10   103.04     LegendNANA

Notes on Data Quality.

Legend

  • E = Estimated
  • M = Missing
  • NA = Not Available*
  • [empty] = Indicates an unobserved value
Date modified: